PulseSat

PulseSat

INTELSAT 902 (IS-902)

Last updated on Feb. 20, 2019, 3:06 a.m. UTC

1 26900U 01039A   19050.15686812  .00000014  00000-0  00000+0 0  9996
2 26900   0.0219 229.4705 0002904 101.9871 295.7868  1.00273285 63947
UTC
Height (km)
Latitude
Longitude
Inclination
Orbital Period

Next 30 passes for location: Hong Kong

Rise time Rise Azimuth (degrees) Set time Set Azimuth (degrees) Duration Max altitude (degrees)

No matching passes for this satellites

PulseSat

PulseSat is the new satellites software and hardware trackering solution by Pulsely.
Satellite Two Line Element Set source: US Air Force Space Command

Download PulseSat for iOS
© 2017 Pulsely Limited